FLOCK 2K-40 (42865 NORAD) Tracking and Keplerian Element Data

This shows tracking and keplerian element data for the satellite.

Feedback or suggestion? Click here.




ElementValue
Catalog42865
NameFLOCK 2K-40
Epoch Orbit28771
Epoch Day235.10255384
Epoch Year2022
RAAN77.3536
Inclination96.7858
Eccentricity0.0006964
Argument of Perigee210.678
Mean Anonmoly149.4098
Mean Motion16.08650275
Decay Rate0.00326629
L11 42865U 17042AS 22235.10255384 .00326629 52765-4 38332-3 0 9990
L22 42865 96.7858 77.3536 0006964 210.6780 149.4098 16.08650275287710

Live tracking and technical data element details for FLOCK 2K-40 (NORAD 42865). FLOCK 2K-40 can be tracked NOW for your location showing map with azimuth and elevation plus other details from your city location.

Track the satellite on the map from your city or location and see movement details for azimuth, elevation, latitude, longitude, range, height, and movement on the map or in text.







IsCatalogInMostPopularTable: catalog: 42865, numindb: 629
Update: records affected: 1



GetName: 42865 FLOCK 2K-40

Hit Count: updated at: Wed, 28 Sep 2022 22:02:39 GMT